Location: Sternwarte ZA, Rosenfeld-Brittheim
(48.2889°N, 8.6789°E)
Time: 11:59:10
(UTC+01:00)

ISS - Pass Details

Date: 21 January 2021
Orbit: 418 x 419 km, 51.6° (Epoch: 20 January)

Event Time Altitude Azimuth Distance (km) Brightness Sun altitude
Rises 17:52:02 0° 204° (SSW) 2,351 0.8 -7.5°
Reaches altitude 10° 17:54:30 10° 186° (S) 1,492 -0.6 -7.9°
Maximum altitude 17:56:58 19° 139° (SE) 1,060 -1.9 -8.3°
Enters shadow 17:59:23 10° 92° (E) 1,486 -1.6 -8.7°
